This is the latest recevied weather packets stored in our database for station/object 4S6DRJ-13. If no packets are shown the sender has not sent any weather packets the latest 10 day(s).
| Time | Temp. | Humidity | Pressure | Rain* | Wind** | Luminosity | Snow |
|---|---|---|---|---|---|---|---|
| 1787892206 | 30° C | 79% | 1011 hPa | 0 mm | 2.68 m/s, 247° | 442 W/m² | - |
| 1787892145 | 30° C | 78% | 1011.2 hPa | 0 mm | 2.24 m/s, 229° | 373 W/m² | - |
| 1787892083 | 30° C | 78% | 1011.1 hPa | 0 mm | 2.24 m/s, 245° | 347 W/m² | - |
| 1787892023 | 30° C | 78% | 1011.2 hPa | 0 mm | 3.13 m/s, 115° | 432 W/m² | - |
| 1787891961 | 30° C | 78% | 1011.2 hPa | 0 mm | 1.34 m/s, 120° | 454 W/m² | - |
| 1787891900 | 30° C | 78% | 1011.1 hPa | 0 mm | 3.58 m/s, 199° | 581 W/m² | - |
| 1787891839 | 30° C | 79% | 1011.2 hPa | 0 mm | 4.02 m/s, 234° | 663 W/m² | - |
| 1787891779 | 29.44° C | 80% | 1011.2 hPa | 0 mm | 2.24 m/s, 318° | 677 W/m² | - |
| 1787891718 | 29.44° C | 80% | 1011.1 hPa | 0 mm | 1.34 m/s, 236° | 1134 W/m² | - |
| 1787891657 | 29.44° C | 80% | 1011.2 hPa | 0 mm | 1.79 m/s, 301° | 1106 W/m² | - |
| 1787891595 | 29.44° C | 80% | 1011.3 hPa | 0 mm | 1.79 m/s, 277° | 512 W/m² | - |
| 1787891535 | 29.44° C | 81% | 1011 hPa | 0 mm | 1.79 m/s, 232° | 470 W/m² | - |
| 1787891473 | 29.44° C | 81% | 1011.2 hPa | 0 mm | 1.79 m/s, 175° | 400 W/m² | - |
| 1787891412 | 29.44° C | 81% | 1011.1 hPa | 0 mm | 1.34 m/s, 210° | 384 W/m² | - |
| 1787891351 | 29.44° C | 81% | 1011.4 hPa | 0 mm | 1.34 m/s, 216° | 451 W/m² | - |
| 1787891290 | 29.44° C | 81% | 1011.3 hPa | 0 mm | 1.34 m/s, 252° | 498 W/m² | - |
| 1787891229 | 29.44° C | 81% | 1011.2 hPa | 0 mm | 1.34 m/s, 225° | 470 W/m² | - |
| 1787891168 | 29.44° C | 81% | 1011.1 hPa | 0 mm | 2.24 m/s, 242° | 405 W/m² | - |
| 1787891107 | 29.44° C | 81% | 1011.1 hPa | 0 mm | 1.79 m/s, 154° | 270 W/m² | - |
| 1787891046 | 29.44° C | 80% | 1011.3 hPa | 0 mm | 1.79 m/s, 220° | 277 W/m² | - |
| 1787890985 | 29.44° C | 81% | 1011.1 hPa | 0 mm | 2.24 m/s, 217° | 285 W/m² | - |
| 1787890924 | 29.44° C | 80% | 1011.1 hPa | 0 mm | 1.34 m/s, 223° | 275 W/m² | - |
| 1787890863 | 29.44° C | 80% | 1011.1 hPa | 0 mm | 3.13 m/s, 216° | 323 W/m² | - |
| 1787890802 | 29.44° C | 80% | 1011.2 hPa | 0 mm | 2.24 m/s, 200° | 328 W/m² | - |
| 1787890741 | 29.44° C | 80% | 1011.2 hPa | 0 mm | 1.79 m/s, 209° | 336 W/m² | - |
* Rain latest hour (hover to see other rain measurements)
** Current wind speed in m/s (hover to see current wind gust speed)